GFSWCAN_sfc_thetae_351.txt.gz
Theta_e
310 310 310 310 310 311 311 312 312 312 313 313 314 313 314 313 312 307 305 308 306 301 302 306 309 305 304 304 301 304 303 305 305 302 302 301 301 303 300 300 301 300 298 296 296 294 295 310 315 305 309 312 315 314
310 311 310 310 310 311 311 311 311 312 312 312 313 313 314 312 312 309 299 306 309 303 301 306 309 310 309 309 305 301 303 303 308 300 299 300 300 301 298 298 304 300 301 299 300 300 306 309 313 315 315 313 314 312
310 310 310 311 311 311 311 311 311 312 312 312 312 313 313 313 312 310 299 301 306 304 303 303 306 310 308 308 308 301 300 303 302 303 300 300 301 301 298 299 302 304 302 298 299 301 305 310 311 313 314 312 314 315
310 310 310 311 311 311 310 311 311 311 312 312 312 312 313 312 311 310 300 302 306 304 299 303 313 307 312 308 308 306 305 304 304 302 299 297 299 303 299 301 300 303 300 298 297 301 303 306 309 312 314 316 315 315
310 310 310 310 311 311 310 310 310 311 311 312 312 312 312 311 310 306 302 305 307 303 295 298 306 309 311 308 310 310 307 304 302 300 298 297 298 300 297 297 296 300 299 298 298 304 301 303 309 314 313 313 314 313
310 310 310 310 310 310 311 310 310 311 311 311 311 311 311 310 310 308 308 310 308 308 300 293 302 309 312 310 310 313 308 305 304 303 300 300 301 300 296 294 300 303 306 304 303 304 304 308 312 316 315 316 318 316
309 310 310 310 310 310 310 310 310 310 310 310 310 310 310 309 303 307 308 309 307 307 305 299 300 308 310 307 307 306 306 306 306 303 301 301 301 302 297 296 303 311 313 311 310 307 307 312 311 315 316 317 317 317
309 309 310 310 310 310 310 309 309 310 310 310 310 310 310 310 308 309 310 310 308 307 305 297 299 305 307 303 303 305 306 305 305 304 302 301 302 300 296 302 308 311 313 313 314 315 312 313 315 316 318 319 318 318
309 309 310 310 310 310 310 309 309 310 309 309 310 310 310 309 307 307 315 314 308 307 302 301 299 298 308 305 306 306 305 301 304 301 300 302 298 298 303 305 307 310 308 310 313 314 315 316 317 318 319 318 315 315
309 309 309 310 310 309 309 309 309 309 308 308 305 305 306 305 313 312 309 307 307 306 302 295 298 296 305 303 302 301 302 301 298 300 303 301 300 305 309 309 309 312 312 315 312 313 314 314 315 315 316 317 316 315
309 309 309 309 309 309 309 309 309 309 306 300 297 296 302 308 305 306 303 303 304 302 303 303 300 301 306 302 300 302 300 299 295 298 299 299 298 305 310 313 316 318 318 318 318 317 316 315 315 316 318 318 318 317
309 309 309 309 309 309 309 308 309 303 299 300 303 306 302 303 301 299 299 301 302 301 305 303 303 304 304 306 302 302 300 301 296 302 302 298 303 308 311 314 319 321 320 321 322 320 318 316 317 317 318 319 320 320
308 308 308 309 309 309 309 309 310 309 306 304 301 299 299 299 292 298 295 298 300 304 305 303 300 301 303 305 302 302 299 298 303 300 301 302 306 309 310 314 316 318 318 319 321 321 320 317 317 317 319 321 321 320
308 308 308 308 308 309 310 310 310 308 304 298 297 289 295 294 296 298 299 300 304 303 302 302 300 300 300 298 300 297 301 302 297 296 296 303 305 308 310 313 314 313 315 316 318 320 319 318 316 319 321 320 319 316
308 308 308 308 309 309 309 309 309 303 299 295 296 290 295 299 300 302 302 301 303 303 301 299 299 298 297 296 297 298 297 297 301 300 305 306 309 308 308 312 313 314 315 316 317 318 319 318 317 318 319 318 317 317
309 307 305 308 308 308 308 307 304 302 300 294 293 293 296 296 296 298 299 301 303 301 301 300 297 296 295 298 298 296 297 295 300 304 307 308 308 308 308 310 312 314 316 316 317 317 318 315 316 316 317 317 316 317
307 301 307 308 307 307 308 302 301 299 298 294 292 296 295 296 296 298 300 302 304 301 297 297 295 295 298 296 296 299 298 302 306 308 309 307 307 310 309 309 312 314 316 316 316 316 315 316 316 315 313 315 317 318
302 301 307 307 306 304 300 301 299 297 293 294 292 294 296 298 298 300 303 303 302 300 298 297 299 294 293 293 294 298 301 303 305 305 306 310 310 310 311 311 312 313 314 315 315 316 315 314 313 314 314 316 316 317
305 303 306 307 305 303 299 300 301 292 294 294 294 295 297 298 300 302 303 304 303 303 301 297 295 293 294 297 299 301 302 303 306 308 309 311 310 309 311 312 311 314 315 314 314 316 316 314 315 316 316 317 315 317
307 307 307 307 306 301 299 297 302 295 293 294 295 294 296 298 300 301 302 303 302 301 297 296 296 298 298 302 305 307 308 309 309 309 308 310 311 309 311 310 311 312 313 313 313 307 314 316 316 316 318 316 317 317
304 305 309 304 303 301 297 297 297 300 297 294 296 296 296 298 298 299 299 303 304 303 302 304 304 309 311 312 312 312 312 314 313 313 312 311 314 313 310 313 313 312 310 310 311 312 309 313 318 321 320 317 318 320
302 310 307 305 302 302 300 298 295 297 295 295 295 296 294 296 300 304 309 305 303 307 309 307 308 310 308 308 311 311 315 317 318 317 310 313 314 314 312 313 312 312 313 314 315 314 316 320 320 322 320 317 316 313
305 306 304 304 300 295 293 299 298 299 294 296 300 299 299 297 305 309 304 304 304 307 310 307 308 310 308 313 315 315 313 316 314 314 316 317 318 317 316 315 315 315 317 318 320 320 320 310 316 318 319 318 317 313
307 303 299 298 297 290 296 297 299 298 298 297 297 298 301 304 308 301 301 304 309 310 309 306 313 312 312 313 311 311 313 313 311 313 317 318 317 317 318 319 319 319 321 323 322 321 320 316 311 316 315 313 313 313
295 293 293 287 295 296 295 296 296 296 295 297 297 298 300 307 302 302 301 306 308 306 305 309 311 312 310 311 312 313 315 314 312 312 317 319 315 316 315 316 315 315 320 319 317 316 316 315 314 313 312 310 309 308
288 294 291 294 293 292 295 293 294 295 296 297 298 299 304 301 300 298 302 303 308 305 306 310 310 310 311 311 310 311 312 315 314 314 316 317 318 315 310 309 309 310 316 317 314 313 311 310 310 312 311 307 300 306
289 292 295 298 299 299 297 299 298 296 296 297 299 301 299 295 297 302 303 307 307 308 308 311 309 311 311 312 313 314 316 316 315 316 319 320 320 319 316 310 308 311 311 315 316 314 310 308 308 308 306 306 307 306
295 295 290 295 295 297 296 296 296 296 299 302 301 299 299 300 302 308 308 309 309 309 309 311 314 314 313 313 312 312 313 313 313 315 317 318 317 317 317 320 320 302 311 307 308 314 315 313 311 307 305 304 305 306
294 296 296 295 297 297 297 297 297 298 301 302 301 300 302 306 312 311 310 311 312 308 308 311 313 316 316 312 309 305 303 303 306 306 308 308 309 309 312 313 310 315 313 310 297 299 303 307 307 305 304 302 301 300
293 295 293 294 294 295 298 300 300 301 303 303 306 306 306 303 308 315 313 312 309 308 311 310 313 314 313 310 307 303 302 304 301 303 303 303 306 309 309 310 307 304 305 304 302 303 299 302 301 303 301 300 299 299
294 293 292 293 293 296 298 300 299 300 299 300 301 301 301 304 308 314 312 311 313 311 311 312 311 311 308 305 305 302 303 306 305 303 302 304 305 306 309 307 303 303 303 302 301 300 300 299 299 300 300 299 301 300
293 295 293 292 295 299 300 297 296 296 296 296 296 298 299 300 301 306 308 311 312 311 308 309 309 310 312 308 306 305 300 308 303 301 301 301 306 307 307 305 304 303 303 302 301 299 299 298 298 298 298 298 298 298
297 298 298 297 296 296 298 296 295 295 295 295 296 298 298 299 299 304 309 311 313 313 312 312 312 313 312 311 311 309 304 303 298 294 292 292 292 297 305 306 305 304 304 303 301 300 299 298 297 297 297 297 297 297

GFSWCAN_sfc_thetae_357.txt.gz
Theta_e
311 311 311 311 312 312 312 312 312 312 313 313 314 314 314 313 311 309 311 312 313 309 310 312 314 313 312 313 311 311 311 313 315 314 311 311 309 311 309 312 311 311 310 308 306 305 302 314 313 307 314 318 318 321
311 311 311 311 311 312 312 312 312 312 312 313 313 313 314 313 312 310 309 311 313 311 308 310 313 314 314 314 314 310 311 312 316 313 311 312 311 311 310 306 312 308 313 311 311 311 315 314 315 319 319 317 318 320
310 310 311 311 311 311 312 312 312 312 312 313 313 313 313 313 312 310 310 309 313 312 312 310 311 315 315 315 316 311 310 312 313 312 312 310 309 312 308 309 310 313 312 311 310 312 311 314 317 317 318 317 321 323
310 310 310 311 311 311 311 312 312 311 312 312 313 312 312 312 311 310 313 311 313 310 306 309 311 311 315 315 314 315 312 311 312 313 311 310 307 311 309 309 309 310 311 306 309 312 316 316 318 317 318 322 323 324
310 310 310 310 311 311 311 311 311 311 312 312 312 312 312 311 310 311 312 313 314 309 303 305 308 313 317 314 312 313 313 313 314 312 311 309 310 308 308 308 307 311 309 309 307 315 312 314 318 319 320 321 323 324
310 310 310 310 310 311 311 311 311 311 311 312 312 311 311 310 310 316 316 316 313 315 305 302 308 313 317 314 313 313 314 315 315 314 312 311 309 311 306 306 307 314 316 316 316 318 318 319 320 324 323 325 325 326
309 309 310 310 310 310 310 310 310 310 311 311 310 310 310 310 313 314 312 312 310 315 311 305 310 314 315 314 314 316 315 316 316 314 312 313 311 311 309 305 312 318 320 318 320 320 318 321 320 324 326 326 326 327
309 309 309 310 310 310 310 310 310 310 310 310 309 309 310 309 311 312 315 313 313 314 313 306 308 312 315 315 314 315 316 315 313 313 312 311 310 311 307 312 317 320 322 320 323 322 321 323 324 324 325 325 324 325
309 309 309 309 310 310 310 310 310 310 309 309 309 310 315 313 314 312 313 315 316 313 311 311 308 306 314 313 314 314 315 313 313 312 311 311 311 309 312 314 317 318 318 319 323 324 323 322 322 322 321 321 321 323
309 309 309 309 309 309 309 310 310 309 308 308 310 312 313 311 311 312 315 315 316 314 310 303 307 307 311 313 311 311 311 310 308 308 313 312 310 314 316 317 319 320 320 320 317 316 319 320 321 322 321 321 322 324
309 309 309 309 309 309 309 310 309 308 308 306 303 302 307 311 311 314 310 311 312 310 312 312 308 309 314 311 310 311 310 310 305 306 308 308 308 312 316 318 320 322 323 322 322 322 321 321 320 322 323 324 323 324
309 309 309 308 309 309 309 309 308 308 306 305 303 306 307 309 308 306 306 308 309 307 312 312 311 312 312 315 312 311 309 310 302 311 310 305 310 314 316 316 318 320 320 319 320 321 322 323 323 323 324 324 324 325
309 308 308 308 309 309 309 309 308 309 308 307 303 303 304 305 298 301 300 304 307 311 312 311 309 310 312 312 310 311 304 304 311 308 305 308 313 315 316 317 318 319 319 320 319 320 321 323 324 324 324 326 326 326
308 308 308 308 308 309 309 308 308 309 307 303 301 291 299 299 302 304 305 306 309 310 310 310 309 309 308 308 308 303 307 308 302 302 302 310 313 315 316 317 318 317 318 318 318 319 320 322 322 323 325 326 325 324
308 308 308 308 308 309 308 308 308 309 306 299 300 291 300 304 304 306 306 307 309 309 309 309 308 309 307 304 306 305 302 300 304 303 308 311 315 316 316 316 317 317 316 316 318 320 320 322 322 322 325 325 325 325
308 308 306 307 308 308 307 307 308 309 306 301 299 298 302 301 304 305 306 308 310 310 309 309 305 302 302 305 303 301 300 299 304 308 310 313 314 315 316 316 317 317 317 317 318 320 321 321 322 322 324 324 325 325
307 305 306 307 307 307 306 307 307 303 302 299 299 301 301 301 301 304 305 309 311 308 306 306 300 300 305 303 301 307 304 307 309 310 312 315 315 315 316 317 318 318 317 318 318 319 320 323 323 321 320 324 325 326
304 307 306 307 307 304 306 307 304 301 298 301 298 301 302 303 303 305 308 310 309 308 308 304 307 301 300 297 302 309 310 311 312 312 314 315 317 318 317 318 317 317 318 318 319 320 322 320 320 320 321 324 322 320
306 306 306 307 307 302 300 302 305 297 299 300 301 301 302 303 305 305 306 310 311 311 309 306 302 301 302 306 308 309 310 312 312 312 314 316 319 319 320 319 318 318 319 320 320 320 322 322 321 321 321 321 320 319
308 308 308 308 306 301 296 300 305 300 298 300 301 300 302 303 305 307 307 310 310 309 306 304 304 306 307 309 312 313 315 316 314 311 313 317 319 320 318 319 317 319 319 320 321 310 320 321 322 321 321 319 316 313
304 304 308 307 304 302 298 299 300 302 303 301 303 302 301 303 303 304 305 308 307 307 305 308 308 309 311 315 318 319 317 315 314 315 315 314 317 317 318 320 320 320 320 319 318 317 315 320 322 317 314 313 314 313
303 307 306 306 301 301 299 303 300 302 299 301 300 301 299 300 302 305 307 305 305 309 312 313 313 314 315 316 318 318 317 318 319 317 309 311 317 318 317 318 319 316 318 318 319 317 315 316 317 315 313 312 310 309
304 304 303 304 299 296 295 304 299 301 297 298 301 299 300 302 306 310 307 308 310 316 314 314 315 317 317 318 318 319 318 316 314 316 317 317 320 321 321 322 320 319 317 317 320 318 315 308 311 315 314 312 311 311
304 301 299 298 297 292 300 297 300 298 299 298 297 297 300 305 310 309 306 310 314 316 314 314 316 317 315 315 314 315 319 320 319 316 321 320 317 318 320 320 321 321 321 320 318 317 315 313 307 311 311 310 309 309
294 294 294 289 297 296 295 296 296 296 294 297 297 298 303 310 305 304 305 308 313 313 313 314 314 314 313 314 314 316 317 315 316 317 319 318 317 317 318 319 318 319 322 318 314 313 313 312 311 311 311 310 310 309
289 295 291 294 295 294 295 293 294 295 296 296 299 302 307 305 301 299 305 312 311 311 312 314 315 314 311 314 312 312 314 317 319 318 321 319 318 317 315 316 315 313 317 320 317 313 312 311 311 311 308 306 299 305
288 292 297 300 298 299 297 299 299 297 295 296 299 301 301 297 298 303 309 312 313 314 315 316 317 315 315 315 316 318 316 317 317 319 324 323 320 318 319 316 314 316 319 318 317 315 313 312 311 309 307 306 306 305
295 296 292 297 297 299 294 296 297 296 299 303 302 299 298 299 301 309 311 314 315 316 317 319 320 317 317 316 310 308 311 311 316 320 324 321 317 318 315 321 324 300 312 312 317 319 316 316 314 308 307 305 305 305
295 299 298 295 297 298 297 296 297 300 302 302 301 300 302 307 311 311 314 317 316 315 315 316 317 317 316 310 308 308 307 308 311 311 309 307 308 309 310 318 318 314 314 311 294 304 311 311 309 308 307 306 306 306
296 299 296 295 295 295 300 303 302 303 303 307 308 308 308 308 310 315 314 313 312 314 315 316 315 314 312 307 307 308 307 307 304 305 304 304 305 306 312 313 309 308 310 309 310 309 299 306 304 308 306 305 304 303
298 298 296 296 295 300 302 304 304 304 304 305 308 305 304 308 312 315 315 315 314 313 315 312 311 310 308 307 307 306 305 306 306 307 308 308 308 308 307 309 309 310 309 309 308 308 307 306 305 304 304 303 303 302
296 295 295 293 295 301 302 300 300 301 302 302 302 305 304 305 306 314 316 318 317 312 308 312 309 309 311 312 310 307 297 305 305 307 309 309 309 309 309 309 309 309 308 307 307 306 306 305 304 304 304 303 303 303
296 296 297 296 296 298 301 300 298 298 300 300 300 302 303 303 302 312 317 318 319 317 316 315 313 313 312 311 312 306 301 304 297 291 292 292 291 299 307 308 308 307 306 305 305 305 304 304 303 302 302 301 301 301

GFSWCAN_sfc_thetae_360.txt.gz
Theta_e
311 311 311 312 312 312 313 313 313 313 313 314 314 314 315 314 313 315 321 323 320 317 318 318 319 318 318 318 315 319 317 318 318 316 316 316 315 316 315 317 315 314 312 310 312 309 306 318 317 312 318 321 320 320
311 311 311 311 311 312 312 312 312 312 313 313 314 314 314 314 313 312 321 323 322 317 316 318 319 321 319 319 319 319 318 318 322 318 320 319 315 318 316 309 321 312 317 314 316 314 318 319 318 320 322 321 322 323
310 311 311 311 311 312 312 312 312 312 313 313 314 313 313 313 312 312 320 320 322 318 317 317 315 320 321 320 322 315 321 320 322 321 321 318 314 318 309 310 315 319 319 316 316 319 317 319 320 322 325 324 326 327
310 310 310 311 311 311 312 312 312 312 312 313 313 313 313 312 312 311 320 320 320 317 311 315 317 319 322 322 322 319 319 321 322 322 317 314 310 316 310 313 313 314 316 313 314 316 319 316 324 325 325 327 327 328
310 310 310 311 311 311 311 311 311 312 312 312 312 313 312 311 311 316 324 322 321 315 310 313 315 321 324 323 320 321 319 320 319 316 314 312 317 313 315 312 309 318 313 310 309 320 320 323 326 327 327 327 329 328
310 310 310 310 311 311 311 311 311 311 312 312 312 311 311 311 309 323 320 324 321 320 312 308 316 321 320 320 319 318 318 321 321 319 318 321 317 315 310 309 315 317 320 321 319 325 325 326 327 328 329 329 329 329
309 309 309 310 310 311 311 310 310 311 311 311 310 310 311 310 320 318 316 316 313 322 315 309 313 321 321 321 322 320 320 324 321 321 317 317 318 314 313 309 318 321 324 324 326 327 324 325 325 329 329 329 327 329
309 309 309 309 310 310 310 310 310 310 310 310 310 309 310 310 311 317 321 315 316 318 319 311 314 316 322 319 317 326 320 321 321 319 320 316 318 317 310 318 323 324 325 325 327 328 327 328 329 328 329 328 326 325
309 309 309 309 310 310 310 310 310 310 309 309 309 310 319 319 322 320 315 316 325 319 314 315 312 311 323 320 323 320 323 314 321 315 317 316 314 310 318 319 322 322 322 322 324 325 325 325 325 326 326 327 325 324
309 309 309 309 309 309 310 310 310 308 308 309 316 317 317 319 313 316 320 322 322 319 313 311 318 313 318 319 317 317 318 314 310 315 320 314 313 321 321 322 325 322 322 322 320 319 321 321 322 323 323 324 325 326
309 309 309 309 309 309 310 310 309 308 310 313 309 312 314 316 318 317 315 316 318 314 318 318 317 315 322 314 314 318 315 316 306 311 311 313 312 318 320 319 322 322 323 322 322 321 322 323 323 324 325 326 326 326
310 309 309 309 308 309 309 309 309 310 309 308 305 307 311 317 315 311 311 315 314 313 317 315 315 319 319 324 316 317 311 313 304 317 311 309 313 319 320 320 322 323 322 322 323 322 321 321 323 325 326 326 327 329
309 309 309 308 308 309 309 309 309 308 309 312 307 309 312 312 299 302 302 308 310 316 318 316 314 319 318 319 317 314 306 306 317 309 310 309 315 320 321 321 321 322 322 321 320 320 321 322 323 324 326 327 329 329
309 309 308 308 308 309 309 309 308 310 312 308 304 294 304 303 307 311 313 313 315 319 316 318 315 317 317 313 315 305 311 311 304 303 304 311 316 317 319 319 318 318 319 319 319 320 320 321 323 325 326 328 328 327
308 308 308 308 308 309 308 308 308 313 311 305 305 294 304 311 312 315 315 315 316 319 317 314 315 314 313 308 311 309 304 301 306 307 313 315 318 319 319 320 320 320 321 321 321 321 321 321 323 324 327 328 327 327
308 307 308 307 307 308 307 309 314 316 311 306 304 302 309 308 310 312 314 314 318 318 318 316 311 307 306 310 304 302 302 301 308 315 315 317 318 321 322 323 323 324 324 323 324 324 324 323 323 325 327 327 326 327
307 305 306 306 307 307 307 311 313 306 306 303 304 307 307 309 310 313 315 316 319 314 311 313 304 303 311 305 303 312 308 312 314 314 315 320 321 322 323 324 323 321 320 321 322 324 324 325 326 326 324 325 327 324
305 309 306 307 308 309 312 313 309 306 301 306 303 308 308 310 310 313 316 318 316 315 314 309 313 305 303 300 305 313 316 315 316 317 319 322 323 322 324 322 321 321 319 320 323 323 324 324 324 325 324 325 324 324
307 308 307 308 307 304 303 307 309 302 304 307 307 308 308 309 312 312 312 317 319 318 315 312 306 305 306 311 310 313 315 315 316 318 319 323 324 324 323 321 320 322 321 322 322 320 322 325 326 326 324 322 320 317
307 308 308 308 307 302 298 304 311 304 302 306 307 305 307 307 312 312 313 315 315 314 310 307 307 312 312 315 317 316 319 320 317 316 317 320 324 324 324 323 320 321 320 321 324 314 320 320 322 320 316 314 312 310
305 307 308 308 305 303 301 303 304 307 306 305 310 307 306 309 306 306 308 313 311 310 308 311 312 317 319 322 322 321 321 323 318 317 319 316 321 322 322 322 323 325 320 319 320 317 314 312 312 312 311 310 311 313
305 307 306 307 302 303 301 307 304 306 305 306 305 306 304 304 306 307 310 308 308 310 312 313 317 320 317 319 322 324 323 321 320 317 311 314 320 322 321 320 318 321 322 322 319 318 317 317 314 314 313 313 311 311
305 304 303 304 300 297 298 309 301 304 299 302 306 302 304 306 310 313 306 307 309 314 317 319 320 320 320 323 323 323 323 318 317 319 323 322 323 323 321 319 319 317 317 318 318 316 314 306 311 314 314 312 311 311
304 301 299 298 299 295 304 300 304 302 301 300 300 299 302 307 313 310 306 311 312 317 318 318 317 317 319 318 319 322 322 323 323 323 321 321 319 318 320 318 318 318 317 315 315 315 314 314 307 313 312 312 311 309
293 294 296 291 300 298 296 297 297 297 294 297 298 300 304 311 306 306 306 311 316 319 320 317 316 318 318 320 316 317 323 317 314 320 322 320 318 319 317 318 317 318 318 315 314 313 313 314 313 312 310 308 308 307
288 295 293 295 295 296 297 294 295 296 297 297 300 303 310 307 302 301 310 315 317 318 317 316 315 317 314 316 319 317 320 321 322 322 324 321 318 317 316 315 313 313 319 318 315 313 312 312 311 310 309 307 299 306
290 293 298 305 300 301 299 302 302 298 295 296 299 303 305 299 300 304 312 316 314 317 321 321 322 322 322 320 322 320 316 319 320 320 327 325 317 318 318 316 313 315 319 317 315 313 312 311 310 310 309 309 308 307
296 297 294 298 299 301 294 295 297 297 298 304 302 299 298 296 300 309 313 320 320 322 324 326 325 323 320 318 314 310 312 317 320 324 329 322 320 319 317 323 322 300 315 314 314 313 313 313 311 310 309 308 307 308
296 300 299 295 296 297 297 296 298 301 304 302 302 302 302 307 311 312 318 319 321 322 321 320 319 321 319 315 313 312 313 313 315 314 313 312 309 312 318 325 319 314 314 315 294 302 310 310 310 310 309 308 308 308
297 302 297 297 296 294 300 303 303 305 305 308 311 311 310 310 312 316 317 317 319 318 318 318 318 319 313 308 310 308 308 312 306 309 307 304 304 309 314 316 313 313 314 314 314 313 298 307 304 310 307 307 307 306
302 301 298 298 297 301 303 305 307 307 306 306 310 305 304 307 312 316 316 317 316 317 316 310 310 312 311 311 310 309 307 311 311 311 311 311 311 310 311 312 312 313 313 312 310 309 308 307 307 307 307 306 305 303
300 298 297 294 297 302 304 302 302 302 305 305 305 308 306 306 305 315 319 322 318 313 308 311 309 311 312 310 307 306 299 310 311 311 311 311 311 312 312 312 312 311 310 309 308 308 307 307 306 305 305 304 304 304
299 299 299 299 299 298 303 301 300 300 302 301 303 305 305 304 303 316 322 325 322 320 316 313 311 312 312 311 309 309 305 308 298 290 291 291 290 297 308 309 309 308 307 307 306 306 305 305 304 304 304 304 304 303

GFSWCAN_sfc_thetae_363.txt.gz
Theta_e
311 312 312 312 312 313 313 313 313 313 314 314 315 315 315 315 314 316 326 328 323 321 322 322 323 323 323 321 319 324 321 321 320 318 317 317 316 318 317 320 318 316 314 312 314 310 307 322 322 315 321 324 323 323
311 311 311 312 312 312 312 313 313 313 313 314 314 315 314 314 314 313 325 327 326 320 319 324 321 324 324 324 322 324 321 323 324 320 319 319 316 318 318 311 321 313 318 316 317 314 324 324 323 324 325 324 323 323
310 310 311 311 312 312 312 312 313 313 313 314 314 314 314 314 313 313 324 324 325 319 319 319 318 323 324 324 326 317 321 322 324 325 319 317 315 318 311 312 315 317 324 317 318 320 323 323 324 327 327 326 326 327
310 310 311 311 311 311 312 312 312 312 313 313 313 314 313 313 313 311 324 325 323 320 314 318 323 321 326 324 323 323 321 324 323 323 317 315 313 318 313 314 315 318 319 317 316 319 322 320 325 328 328 329 329 330
310 310 310 311 311 311 311 311 312 312 312 312 312 313 312 312 312 316 327 328 325 318 314 316 320 324 327 325 324 324 320 319 319 317 315 313 317 316 317 314 312 317 315 313 312 322 323 322 326 329 329 329 330 330
310 310 310 310 310 311 311 311 311 311 312 312 311 311 311 313 310 325 323 329 325 323 317 310 321 323 325 324 322 323 321 322 321 319 317 321 320 318 310 310 320 321 320 320 319 325 326 326 328 330 330 330 330 329
309 309 310 310 310 310 311 311 311 311 311 310 310 310 311 312 319 321 319 320 316 324 319 312 312 322 324 323 322 320 321 320 320 319 318 318 319 318 313 310 321 323 325 326 327 328 324 327 325 330 330 330 329 330
309 309 309 310 310 310 310 310 310 310 310 310 310 310 312 311 311 318 324 318 317 321 319 313 315 317 323 318 318 326 319 321 321 318 322 318 319 319 312 318 324 325 326 326 327 328 327 328 329 327 328 327 325 326
310 310 310 310 310 310 310 310 310 310 309 309 310 310 319 320 324 323 316 315 328 323 316 314 312 312 323 322 325 322 322 316 322 317 317 320 315 311 321 322 324 325 324 324 326 326 326 325 325 326 326 326 325 325
310 310 310 310 310 310 310 310 310 309 308 309 315 320 320 323 315 320 321 323 324 321 317 311 323 317 320 319 317 320 320 315 312 318 322 316 313 325 324 326 327 326 325 325 321 321 322 321 322 323 324 325 325 326
309 310 310 310 310 310 310 310 309 308 311 317 313 315 318 319 321 318 316 316 319 314 315 314 316 317 323 315 316 320 317 318 309 314 313 312 314 322 325 324 326 324 325 325 325 325 324 323 322 322 322 324 325 326
309 309 310 309 309 309 309 309 309 312 311 307 308 312 318 318 316 312 312 315 315 315 320 316 316 321 320 324 317 317 311 314 306 319 313 309 318 323 323 322 324 326 325 324 325 323 323 323 323 322 323 323 324 326
308 309 309 309 309 309 309 309 309 309 309 316 311 314 316 315 302 304 304 309 312 319 320 319 314 318 320 320 318 317 309 309 319 311 309 316 320 322 322 323 323 323 323 322 322 323 323 322 323 322 322 324 325 326
308 309 309 309 309 309 309 309 309 310 312 312 309 296 307 305 307 310 312 316 321 323 319 319 318 316 321 315 318 308 315 314 306 304 308 316 321 322 322 322 322 322 322 322 323 324 324 325 324 324 323 325 325 326
308 309 309 308 309 308 308 308 309 313 314 309 309 297 306 313 317 319 319 319 320 325 320 319 319 318 315 311 312 310 306 303 306 308 314 318 322 323 322 323 323 323 324 325 325 325 324 323 324 325 326 326 327 326
308 307 310 308 307 308 308 310 313 317 314 310 308 305 310 310 312 314 316 317 321 320 323 320 315 310 309 311 306 305 303 303 310 315 317 320 322 323 324 325 326 325 323 325 325 325 326 326 325 326 327 327 327 328
307 306 307 306 307 307 308 311 316 311 310 307 306 311 310 312 314 316 318 319 324 318 312 315 306 306 314 307 305 314 310 313 316 317 318 322 323 324 324 323 325 324 323 322 322 326 325 327 328 327 324 327 329 328
305 309 307 307 309 310 314 313 312 309 304 308 306 309 311 312 316 317 319 321 318 316 317 312 316 308 305 303 306 314 317 319 319 319 320 324 326 326 326 325 326 326 325 325 325 326 325 325 324 324 325 329 327 321
307 308 308 308 308 306 307 309 312 305 307 310 311 312 311 311 315 317 320 320 321 321 319 315 308 308 308 314 313 315 317 317 317 318 320 326 326 327 326 327 327 326 326 325 324 325 321 317 318 318 317 315 311 312
307 307 308 308 308 303 302 306 313 307 305 308 311 309 310 310 314 314 315 317 317 316 312 310 310 313 314 316 318 317 318 320 319 318 317 320 326 326 325 324 323 326 325 325 323 312 318 315 313 312 312 311 310 310
306 308 309 308 306 305 303 304 304 305 305 305 310 311 309 311 309 309 311 316 313 312 311 314 314 317 322 322 323 323 322 324 321 320 322 320 322 325 324 324 324 323 323 320 318 318 314 315 314 313 314 313 314 315
306 307 306 307 303 304 304 308 304 306 306 306 308 309 307 307 308 309 312 309 311 313 315 314 317 318 320 322 324 328 328 326 326 323 312 314 322 325 321 320 319 317 318 320 320 315 314 315 318 319 319 317 312 313
305 304 303 305 301 298 299 308 303 304 299 301 307 304 306 307 310 314 308 310 311 316 317 317 320 324 321 324 324 325 326 326 326 323 327 327 324 327 320 318 318 316 314 313 314 314 315 309 312 314 314 314 313 312
304 301 299 298 301 297 304 302 305 303 302 301 301 299 303 306 312 309 306 309 312 315 316 323 320 319 322 322 320 325 328 329 329 325 325 325 317 317 317 318 318 316 316 315 316 314 314 313 306 312 311 311 311 310
293 293 296 291 302 299 297 298 299 300 297 299 298 300 304 311 306 306 307 314 314 314 317 320 320 320 320 322 325 321 326 326 323 322 322 320 319 320 317 317 317 317 317 314 313 313 313 313 312 312 311 309 309 309
290 296 294 296 300 298 299 295 297 298 299 298 300 303 308 308 302 303 313 318 320 321 321 320 320 321 321 323 323 322 321 324 325 322 325 321 319 316 315 314 314 314 317 316 314 312 311 311 311 310 310 307 300 307
291 296 302 305 303 303 301 302 304 302 298 299 301 304 306 300 301 309 318 321 321 324 321 322 326 325 324 324 326 326 324 322 323 322 329 324 322 319 315 315 314 315 316 316 316 314 312 311 311 310 310 310 310 309
296 300 296 300 300 304 298 298 296 298 301 305 303 300 299 300 301 312 313 322 322 327 328 328 326 326 324 320 319 321 319 317 320 327 326 320 320 318 318 319 319 301 316 314 314 315 313 312 311 310 310 309 308 309
298 302 302 298 299 298 300 300 298 301 304 302 300 301 302 307 310 311 316 321 324 323 321 323 324 322 318 317 317 316 316 317 317 315 312 309 310 310 314 319 318 317 318 315 295 304 310 310 309 309 309 309 309 309
298 304 299 297 297 297 300 305 304 306 308 307 312 310 309 309 312 315 318 323 320 320 321 319 322 321 313 312 312 312 314 315 315 312 312 308 307 311 315 315 316 315 315 314 313 312 299 307 306 309 309 308 307 307
303 302 299 299 298 302 304 307 308 308 309 307 312 306 306 308 312 317 318 320 318 321 315 312 313 314 312 310 311 311 311 315 315 315 315 314 313 312 311 313 314 315 314 312 312 310 309 309 309 308 307 306 306 304
301 299 299 296 299 304 306 304 304 303 304 305 306 310 309 307 304 312 319 318 317 314 306 310 310 309 311 310 310 309 302 311 310 310 311 312 312 313 314 312 311 311 310 309 309 308 308 307 306 306 306 305 304 305
300 299 300 300 300 301 304 304 302 301 304 305 306 306 306 306 304 313 326 325 322 320 314 313 312 313 313 311 310 309 306 308 299 291 292 291 291 298 309 310 310 310 309 308 308 308 307 307 306 306 306 306 305 305

GFSWCAN_sfc_thetae_366.txt.gz
Theta_e
311 311 312 312 313 313 313 313 313 313 314 314 315 315 315 315 315 315 326 330 322 319 322 324 323 321 323 324 320 324 323 323 320 318 316 315 314 316 316 320 317 315 314 312 314 310 308 323 322 315 322 325 324 323
311 311 312 312 312 312 312 312 313 313 313 314 314 315 315 315 314 314 325 328 326 319 319 323 325 324 322 325 321 321 321 323 324 320 320 319 315 317 320 310 322 312 316 315 316 315 327 325 324 325 326 325 324 323
311 311 311 311 311 312 312 312 312 313 313 313 314 314 314 314 314 313 323 328 324 321 318 318 318 323 325 323 325 316 321 324 323 325 320 317 317 315 311 312 315 317 324 316 319 320 322 324 325 328 328 325 325 326
310 310 311 311 311 311 311 312 312 312 312 313 313 313 313 313 313 312 325 327 324 320 314 316 325 323 327 326 323 323 321 322 322 323 318 315 311 316 312 314 314 316 319 317 316 320 323 323 326 327 327 329 328 329
310 310 311 311 311 311 311 311 311 312 312 312 313 312 312 312 313 314 325 329 327 317 315 317 322 324 326 324 321 322 320 319 317 316 315 313 316 315 316 316 313 317 318 313 313 322 322 324 326 326 325 327 329 328
310 310 310 311 311 311 311 311 311 311 311 312 312 311 311 312 314 321 323 330 326 323 316 311 321 322 324 324 323 322 322 320 317 317 317 319 321 319 313 310 320 322 323 322 319 324 325 325 326 328 328 327 328 328
310 310 310 310 311 311 311 311 311 311 311 311 310 310 311 312 317 321 319 320 317 325 318 313 311 322 323 323 322 321 322 319 319 318 316 317 318 319 315 311 317 324 326 327 328 325 323 325 324 328 330 329 328 327
311 310 311 311 311 311 311 310 310 310 310 310 310 310 311 312 313 318 323 318 316 321 320 311 313 318 324 318 317 322 318 318 319 318 319 317 320 319 312 318 325 326 326 325 326 327 325 325 326 326 326 325 324 324
310 310 310 311 311 311 310 310 310 310 309 309 310 311 317 320 323 324 316 316 324 323 317 312 310 312 323 318 320 322 322 315 321 316 316 317 314 312 320 322 325 326 324 324 325 325 324 323 323 324 323 323 322 323
309 310 310 310 311 310 310 310 310 309 308 309 315 320 321 323 318 321 322 320 322 321 318 313 318 315 321 318 319 318 319 314 311 316 321 316 314 325 326 327 328 327 325 325 322 320 321 321 322 322 321 322 322 322
309 309 310 310 310 310 310 310 309 308 312 315 313 314 318 321 320 318 315 315 319 314 317 313 313 314 322 317 316 319 316 316 309 313 313 312 313 323 327 326 326 326 325 325 325 324 323 322 321 321 322 322 322 323
309 309 309 310 310 310 310 309 309 311 311 307 305 311 317 317 315 312 311 314 315 313 319 314 315 319 321 323 319 319 312 313 306 319 313 309 320 325 325 324 324 324 324 323 323 322 322 321 321 321 321 321 322 324
309 309 309 309 309 310 310 310 310 309 309 317 311 314 315 314 301 305 304 309 310 319 320 320 315 319 320 319 315 317 310 309 318 312 309 317 322 324 325 324 323 324 323 322 322 322 325 324 325 325 324 326 327 327
308 308 308 309 309 309 309 310 309 309 310 312 311 295 307 305 308 308 310 315 321 321 320 320 316 317 319 314 315 309 313 314 307 305 308 318 323 323 323 323 322 321 321 322 323 323 323 324 324 325 324 326 324 325
308 308 308 308 308 310 309 309 309 312 313 309 309 297 305 311 315 317 319 321 323 323 320 318 319 318 315 313 314 310 307 304 306 309 316 322 325 324 323 322 322 324 324 324 324 323 323 324 324 326 327 326 326 328
308 307 308 309 309 308 308 309 312 314 314 310 309 307 311 310 311 314 315 315 321 321 321 319 315 311 310 310 307 305 303 303 311 316 319 324 325 324 324 325 325 326 325 324 324 325 324 325 325 325 328 328 328 328
306 306 308 307 308 307 307 310 315 311 309 308 305 310 310 312 314 316 317 319 323 319 313 314 309 307 312 308 306 310 308 314 317 318 320 329 326 325 325 325 325 326 325 325 324 325 326 324 324 324 324 327 325 325
305 309 307 308 309 310 313 312 310 308 305 307 305 308 311 311 312 318 319 321 320 317 317 312 316 310 307 304 306 312 316 318 318 319 322 325 327 326 326 325 327 326 325 325 325 325 319 317 315 314 317 318 316 315
307 307 308 308 308 307 306 308 310 302 306 308 309 310 312 312 314 316 318 321 321 322 320 316 311 309 310 313 313 315 316 317 317 321 325 328 329 327 327 327 327 325 325 323 322 318 316 316 315 315 315 315 313 313
307 307 307 308 308 303 303 306 312 306 304 306 311 309 310 310 313 313 314 317 317 317 314 311 310 313 313 316 319 318 319 320 319 316 319 323 326 328 325 324 325 326 325 322 320 312 317 315 314 314 313 313 314 316
306 308 309 309 307 305 303 305 304 306 307 306 309 309 308 311 309 310 311 315 313 312 310 313 314 317 326 324 322 322 324 323 325 321 321 322 323 324 328 324 324 321 319 319 318 314 311 314 316 318 317 316 316 314
307 307 307 308 303 305 303 308 304 308 306 306 307 309 306 307 307 309 312 309 310 313 315 315 319 320 321 322 322 326 326 326 326 324 311 313 323 325 324 320 319 318 316 315 315 313 314 315 315 317 316 315 311 314
305 305 303 303 300 298 299 309 303 305 301 303 306 303 303 306 309 314 308 310 311 316 317 319 326 326 323 326 325 325 327 325 326 325 325 325 326 325 320 319 318 316 315 315 316 316 315 307 313 313 312 312 312 311
305 301 298 299 299 296 305 302 306 305 305 302 300 299 302 306 311 309 306 309 313 315 316 325 322 319 320 322 320 328 324 329 328 328 328 323 320 319 320 319 319 318 318 316 316 316 315 314 308 312 311 310 309 309
293 294 295 290 301 300 299 300 301 301 298 299 299 300 303 310 304 305 306 310 314 314 316 320 319 317 318 321 323 325 328 325 324 322 324 321 318 320 318 318 317 316 318 316 315 314 313 314 313 312 312 311 309 308
289 297 295 299 300 299 300 297 299 299 298 297 299 303 307 307 302 302 311 318 319 318 318 318 318 319 322 323 323 323 324 324 326 324 326 322 318 317 315 314 313 315 317 317 317 314 313 314 313 311 311 308 300 308
291 297 302 305 304 304 301 305 305 302 300 298 305 304 305 300 300 309 318 323 318 323 325 329 329 324 324 326 327 330 324 325 325 325 325 323 322 322 319 314 313 315 317 315 314 313 312 312 312 311 311 310 310 309
299 300 297 302 302 305 299 300 299 299 301 307 306 300 299 299 302 309 316 320 324 322 320 327 324 322 321 321 320 320 320 321 325 328 324 323 320 317 318 319 318 305 314 315 313 314 311 310 310 309 309 308 308 309
300 303 302 299 300 301 301 300 300 303 308 305 301 301 302 309 311 313 316 317 323 320 318 317 318 320 317 317 317 317 318 320 320 317 311 309 311 313 319 319 317 316 318 312 297 305 309 309 309 309 310 309 309 308
300 305 300 299 297 298 304 309 308 310 307 307 309 310 311 312 311 315 317 317 315 316 317 317 319 318 313 313 313 314 315 316 316 316 313 311 309 314 317 316 315 315 316 314 313 312 299 306 306 309 308 308 307 306
304 302 299 299 299 304 307 310 310 310 309 308 311 308 308 308 311 316 315 319 319 318 314 310 311 313 311 310 311 311 310 314 314 314 314 314 314 313 313 314 315 315 313 311 310 309 309 308 308 307 307 306 305 303
301 300 298 297 300 305 308 307 307 306 306 305 307 309 308 307 305 312 320 321 318 313 306 309 310 308 310 310 310 309 301 308 307 307 308 310 310 311 312 312 311 310 310 309 309 309 308 308 307 306 305 304 304 305
301 301 302 301 301 301 303 303 302 302 303 303 305 308 307 305 303 313 321 321 319 318 311 310 310 311 312 311 308 307 305 307 299 292 292 291 291 299 308 310 311 310 309 309 309 308 308 307 306 306 306 305 305 304

GFSWCAN_sfc_thetae_369.txt.gz
Theta_e
311 312 312 312 312 312 312 312 313 313 313 314 315 315 315 315 314 312 318 325 323 317 317 320 319 316 315 317 315 320 319 323 319 313 312 312 309 312 312 315 310 308 307 307 308 305 303 321 318 312 316 318 319 318
311 311 312 312 312 312 312 312 312 312 313 313 314 315 315 315 314 313 320 327 328 319 316 320 320 320 318 318 314 315 316 319 321 316 315 315 312 313 310 305 314 305 310 308 310 311 319 320 319 321 321 318 317 316
311 311 311 311 311 311 312 312 312 312 313 313 313 314 314 313 313 312 316 324 325 320 319 318 315 320 322 320 318 313 317 319 320 320 317 315 310 311 304 305 307 311 315 312 312 316 317 321 323 324 323 321 322 323
311 311 311 311 311 311 311 312 312 312 312 312 313 313 313 312 312 313 318 325 324 319 313 313 321 321 325 322 322 320 316 317 315 319 314 312 308 311 306 307 307 311 312 311 313 316 320 322 322 323 324 325 326 326
311 311 311 311 311 311 311 311 312 312 312 312 312 312 312 312 311 313 316 325 327 316 311 313 318 322 322 322 320 321 315 313 314 312 311 309 312 310 312 311 309 315 312 308 309 317 316 317 320 324 323 324 324 324
311 311 311 311 311 311 311 311 311 311 311 311 311 311 311 311 312 317 323 325 321 323 314 311 319 323 323 323 324 320 320 317 316 312 312 315 316 315 308 307 315 318 322 321 317 320 320 321 326 328 325 326 327 325
310 310 311 311 311 311 311 311 311 311 310 310 310 310 310 310 312 318 317 320 313 323 317 313 311 319 324 322 319 318 318 317 315 313 314 313 313 316 311 306 318 322 323 324 323 322 320 322 319 324 325 325 324 324
309 309 310 310 311 311 311 310 310 310 310 310 309 309 310 310 311 318 322 313 313 319 320 311 312 317 323 316 314 320 316 317 316 315 317 314 317 316 309 318 321 323 324 323 323 322 319 320 322 321 321 321 319 319
309 309 309 310 310 310 310 310 310 309 309 309 309 310 314 317 323 323 317 317 322 321 315 314 308 312 320 317 320 321 321 314 319 314 313 314 312 310 319 320 321 323 321 320 322 322 321 320 320 320 319 319 317 317
309 309 309 309 310 310 310 310 310 308 308 309 313 318 319 321 320 321 322 318 318 320 319 311 319 311 319 317 317 318 319 314 309 314 317 313 316 321 323 323 324 323 322 322 318 317 318 318 318 318 317 318 318 318
309 309 309 309 309 310 310 310 309 308 311 311 306 311 312 318 318 320 314 316 318 315 316 312 310 308 318 316 315 318 316 316 307 310 312 310 313 319 324 324 324 323 323 323 323 319 318 317 317 318 319 322 322 322
308 309 309 309 309 310 310 309 309 308 306 305 303 306 311 316 315 313 311 315 315 313 319 314 312 312 322 326 320 318 314 313 307 318 311 309 318 323 323 323 323 323 321 320 321 320 322 322 321 321 321 320 322 322
307 308 309 309 309 309 309 309 309 309 308 310 307 309 313 313 300 304 303 309 311 318 322 320 316 320 322 320 318 317 310 307 317 310 309 316 321 322 323 322 321 321 321 321 322 323 323 323 324 323 321 322 324 324
307 308 308 309 309 309 309 309 310 308 307 308 309 292 305 304 307 308 309 313 320 323 320 321 319 317 320 314 315 311 313 314 307 305 309 317 320 321 322 322 320 320 322 322 322 322 322 322 323 324 324 325 324 323
307 308 308 308 308 309 310 309 309 308 308 308 309 294 304 309 310 312 320 322 323 324 323 320 316 318 316 315 314 311 310 305 307 310 315 320 323 323 321 322 322 322 322 322 322 321 321 322 323 322 324 325 325 325
307 307 308 309 309 309 308 308 309 310 311 309 308 305 309 308 310 314 315 316 321 323 324 321 318 311 312 311 310 307 305 305 311 317 321 323 322 323 322 323 323 324 324 323 323 322 322 320 318 320 323 325 324 323
306 304 309 309 309 308 307 307 312 308 307 306 304 308 307 308 309 315 319 321 325 320 315 317 312 308 314 309 307 311 308 313 316 319 322 325 324 324 324 323 323 324 323 322 322 317 316 316 315 314 313 316 321 319
303 308 308 309 308 309 311 309 308 308 303 306 304 306 309 311 309 316 314 319 321 321 320 313 316 312 307 305 307 314 316 319 321 323 324 326 326 325 325 323 323 324 321 321 320 317 315 314 313 313 313 314 314 314
306 307 308 308 307 304 304 308 310 302 304 307 308 309 309 309 318 317 314 320 323 325 322 319 312 308 311 315 315 316 317 318 318 322 325 328 328 327 326 324 324 324 321 320 317 315 315 314 312 313 313 311 310 312
307 307 308 308 307 303 301 306 313 305 301 307 309 309 311 311 316 316 314 314 318 319 317 314 311 311 317 318 319 319 320 322 320 318 320 323 326 326 324 323 323 323 320 319 318 311 315 312 313 312 312 312 311 312
305 307 309 307 306 304 301 303 306 307 306 304 308 309 308 311 310 310 310 315 312 311 310 316 317 322 326 325 325 326 326 325 322 320 321 321 324 324 324 324 323 322 319 318 316 312 305 312 314 317 316 314 314 312
305 307 307 308 303 304 302 306 304 308 305 305 306 308 306 305 307 308 312 308 308 313 315 315 322 322 323 324 325 326 327 327 327 322 314 313 321 322 321 320 320 315 315 314 313 312 313 314 313 314 313 311 310 312
305 305 303 303 299 297 296 308 303 304 300 303 305 302 303 305 309 313 307 309 310 316 318 322 327 323 322 327 328 328 329 327 324 325 326 325 325 323 321 319 318 315 314 314 315 314 314 309 311 312 311 310 309 309
305 301 297 297 298 294 303 302 304 304 305 302 300 299 302 305 312 308 305 310 312 315 318 324 322 322 323 325 322 323 325 327 325 326 327 324 322 318 317 318 319 318 317 315 316 315 315 314 308 312 311 309 309 307
292 293 295 289 300 298 298 299 300 301 298 301 299 299 305 310 304 303 304 309 316 316 316 321 320 320 318 317 321 324 329 327 324 322 323 324 320 318 318 317 317 316 316 316 314 314 313 313 313 312 311 311 309 308
288 296 292 297 299 298 299 296 298 299 300 298 299 303 308 305 301 301 309 314 314 316 316 317 318 319 321 324 323 323 325 326 322 319 324 322 319 315 314 313 311 311 315 315 314 312 313 313 312 312 310 309 301 306
289 295 301 305 303 304 301 302 304 303 299 298 302 303 303 298 299 306 314 315 317 319 319 320 321 320 321 321 326 325 324 323 324 324 325 323 319 319 318 315 312 314 314 314 313 312 309 308 310 310 310 308 308 307
297 299 296 302 303 305 299 300 300 299 301 305 304 300 299 299 301 309 314 316 318 320 320 322 321 320 320 321 321 319 322 323 323 320 317 318 317 318 320 318 316 302 313 315 311 313 310 309 308 308 309 308 307 307
298 303 302 299 301 301 301 300 300 304 307 304 301 301 302 308 310 312 314 317 319 317 316 315 314 316 316 317 319 320 321 321 318 315 311 309 311 313 319 317 315 314 315 316 305 301 308 308 308 307 309 308 306 306
300 305 301 300 298 298 303 307 306 308 308 308 307 308 311 312 311 314 317 318 315 313 314 315 315 316 313 312 312 313 313 314 319 316 313 310 309 315 316 315 314 315 316 316 315 312 300 305 305 309 307 305 305 305
305 303 300 300 299 303 306 308 309 308 308 308 310 307 306 308 310 315 316 315 315 315 315 312 311 309 307 310 310 308 305 307 307 308 314 315 315 315 315 316 317 316 315 311 309 308 307 307 307 305 305 304 304 302
302 300 299 297 300 306 307 306 305 305 305 307 307 308 308 305 304 309 315 316 316 307 305 307 307 306 307 306 306 305 299 303 303 304 306 307 309 309 310 312 311 310 310 309 308 308 307 306 305 305 305 305 303 303
300 301 301 301 301 302 304 303 302 302 304 304 306 308 306 305 304 311 318 319 321 310 307 308 309 310 307 305 304 303 302 303 296 292 292 292 293 298 307 308 309 310 309 308 307 307 307 306 305 305 304 303 302 302

GFSWCAN_sfc_thetae_375.txt.gz
Theta_e
311 311 311 311 311 312 312 312 312 312 313 313 313 313 314 314 313 309 305 309 310 303 306 310 311 305 305 304 302 305 308 309 311 308 305 304 304 306 305 304 304 300 299 299 301 298 298 314 313 307 309 310 313 314
311 311 311 311 311 311 312 312 312 312 312 313 313 313 313 313 313 311 304 312 314 307 307 309 313 315 312 310 305 305 305 305 310 305 304 305 303 301 299 298 302 300 301 300 303 303 312 314 313 314 312 312 313 316
311 311 311 311 311 311 311 311 311 312 312 312 313 313 313 313 312 310 301 304 309 305 305 306 307 310 312 312 310 304 304 307 304 310 307 305 301 301 299 299 298 300 307 306 306 311 312 314 316 317 317 317 318 319
308 309 308 308 309 310 311 311 311 311 311 312 312 312 312 312 311 310 301 304 309 305 299 302 313 308 312 310 312 309 310 306 307 306 303 301 301 302 299 299 299 301 306 307 306 310 310 313 316 317 319 320 320 321
308 308 308 307 308 309 310 310 310 311 311 311 311 311 311 311 310 307 302 305 308 305 298 300 305 308 310 310 312 309 307 304 303 302 301 301 301 302 300 301 303 307 307 306 305 310 309 309 313 319 319 319 319 318
309 309 308 307 307 309 310 310 310 310 310 310 310 310 310 310 310 308 311 310 309 309 299 294 303 308 309 308 312 309 308 305 304 302 301 301 303 304 300 301 309 311 310 312 311 313 315 317 319 320 317 317 318 317
308 309 309 309 308 309 309 309 309 309 310 309 309 309 309 309 303 305 310 313 308 310 304 301 301 308 308 306 307 307 306 306 305 301 301 301 302 303 299 304 311 312 313 315 315 314 312 314 312 315 317 318 317 317
307 308 309 309 309 309 309 309 309 309 309 309 309 309 310 309 306 308 312 310 308 307 308 300 301 303 310 305 304 305 304 303 302 302 303 301 304 302 301 306 312 313 314 314 313 313 312 313 313 313 314 315 314 313
306 307 307 309 309 309 309 309 309 309 308 308 309 310 308 308 310 310 315 314 308 306 304 302 296 297 309 304 305 307 305 300 303 300 300 305 307 304 306 309 311 312 312 312 313 314 313 312 313 314 315 315 314 314
306 306 307 307 308 309 309 309 309 308 307 307 303 304 308 306 311 311 308 305 305 305 303 300 304 303 305 303 302 305 304 301 299 303 307 308 306 310 312 311 312 313 314 314 310 309 311 312 313 313 314 315 315 315
306 306 306 307 307 308 308 309 308 307 305 297 293 295 300 307 306 305 300 302 304 302 304 304 302 299 303 304 301 305 303 301 298 301 303 304 304 309 313 311 312 312 313 313 314 313 313 313 313 313 315 317 316 317
307 307 306 307 306 307 308 308 308 301 298 299 301 304 299 303 302 301 300 301 305 306 308 304 303 299 299 311 306 305 302 301 297 304 307 302 307 311 311 311 313 315 317 317 318 317 317 317 316 315 316 317 317 318
307 307 307 307 307 307 307 307 308 308 305 302 301 299 300 300 293 297 296 298 298 303 307 307 302 303 305 307 304 302 299 298 303 302 305 307 310 311 310 314 315 316 318 318 318 318 318 318 319 318 316 318 317 318
307 307 307 307 307 307 308 309 309 306 298 297 300 290 297 296 298 298 299 299 304 306 309 308 304 304 303 303 302 300 302 303 298 300 304 306 307 309 311 314 316 315 315 316 316 317 317 315 315 318 318 318 318 316
307 307 307 306 308 309 309 308 308 300 296 296 299 289 296 300 301 302 303 303 306 310 308 306 304 305 302 302 301 301 299 298 301 300 306 308 308 312 313 315 315 315 314 314 314 313 312 313 313 317 319 318 320 319
307 305 306 309 309 309 308 305 301 299 298 297 297 295 299 296 297 298 298 300 307 310 309 307 303 302 302 301 299 299 298 298 303 308 310 310 310 312 312 313 315 315 314 312 311 310 309 309 309 309 313 315 314 314
306 296 304 308 308 307 307 300 300 299 298 298 296 298 297 297 297 297 299 301 307 309 308 306 301 300 302 298 298 300 298 304 308 312 313 311 312 312 312 313 314 314 311 309 308 307 307 307 307 306 305 306 307 307
299 299 306 307 307 302 302 300 300 301 297 298 294 296 297 298 298 299 300 303 307 306 309 308 309 303 301 299 298 305 306 309 313 314 312 312 312 312 314 312 313 313 310 309 308 307 306 305 304 304 303 304 304 305
299 301 305 306 306 303 300 302 301 298 298 298 297 296 297 298 300 301 302 304 306 308 308 305 302 302 303 306 304 307 311 312 313 312 313 313 314 314 314 313 313 311 310 307 306 306 305 304 304 304 304 303 303 304
306 306 306 306 307 299 298 298 305 296 294 295 296 296 297 298 301 302 302 301 303 305 304 303 303 304 306 307 312 312 312 313 316 312 311 312 314 314 313 313 313 311 309 308 307 304 306 304 304 305 304 303 303 304
304 304 308 306 302 300 298 297 294 296 296 295 297 297 297 298 298 299 299 300 299 299 301 306 307 311 312 312 312 316 318 318 314 313 313 312 313 314 313 313 312 310 308 308 307 307 304 305 305 305 305 304 305 306
303 307 304 304 300 301 300 297 294 296 294 295 295 295 294 295 296 298 299 297 296 298 301 304 308 311 314 316 316 317 314 313 313 310 308 308 311 310 310 313 311 310 309 309 308 305 305 305 305 304 303 300 300 302
304 304 301 301 297 294 292 296 293 295 292 293 296 294 294 295 298 300 296 297 299 300 301 303 306 312 313 316 318 317 314 313 312 311 311 312 312 311 312 314 315 311 308 306 306 305 304 301 304 304 304 301 299 301
305 299 297 295 296 291 298 296 296 295 295 293 293 293 294 296 298 297 295 297 299 305 305 306 310 311 311 312 312 313 315 314 313 312 313 312 310 310 311 313 311 310 310 309 305 306 305 306 302 304 303 302 302 304
292 290 292 287 296 295 295 296 296 294 292 295 293 293 294 298 294 294 294 298 302 305 307 309 308 309 311 311 313 313 315 315 313 311 312 312 309 307 309 310 310 311 312 309 307 307 306 306 308 308 304 303 301 300
287 293 289 293 295 292 296 294 295 296 297 295 296 296 297 295 294 292 297 306 308 310 310 310 310 306 307 310 311 311 312 314 312 310 311 312 310 308 308 308 307 309 312 311 307 306 305 305 305 305 302 301 296 301
288 290 295 298 297 299 298 299 300 298 296 296 295 296 294 292 293 300 307 310 310 313 315 314 310 308 310 311 312 312 312 312 312 311 311 312 313 314 313 310 308 311 313 311 307 306 305 305 305 304 302 301 300 299
293 295 292 296 297 298 294 295 298 296 297 300 300 297 297 297 298 304 308 313 313 315 313 310 310 312 314 315 316 314 313 313 314 314 314 314 313 311 312 313 313 303 312 313 312 308 307 305 303 302 301 299 298 299
294 297 297 294 297 296 298 296 295 298 299 298 296 297 299 303 305 304 308 312 315 310 310 310 309 309 308 311 313 314 314 314 311 308 305 304 307 311 314 312 310 311 311 310 303 304 303 302 300 300 300 299 298 297
296 298 294 296 294 295 296 300 298 301 305 305 305 305 305 303 305 312 313 313 311 311 312 311 309 307 305 304 302 301 301 305 311 308 305 304 305 308 309 309 309 308 309 310 310 308 295 300 297 299 300 300 299 297
297 295 293 293 294 298 301 303 304 307 307 306 307 304 303 305 309 313 313 313 311 312 311 305 304 303 303 301 300 301 298 299 301 304 306 307 308 308 307 307 307 307 307 307 303 300 299 298 297 297 297 296 296 295
294 294 293 293 295 300 301 300 300 301 303 304 304 305 305 304 302 308 311 310 306 301 299 299 297 297 298 299 299 298 295 296 296 298 299 299 299 300 303 305 307 307 301 300 299 299 299 298 297 297 296 296 296 296
293 293 294 294 297 298 299 299 299 299 302 302 303 305 305 304 303 308 312 312 308 303 300 299 299 300 299 299 297 295 295 294 292 291 292 292 293 297 302 303 303 302 300 299 298 298 298 297 297 296 296 295 294 294

GFSWCAN_sfc_thetae_381.txt.gz
Theta_e
308 309 309 310 309 308 308 309 311 311 311 311 312 312 313 313 311 309 311 313 314 312 314 314 315 312 311 310 310 309 314 317 316 312 312 313 312 313 312 313 311 312 313 311 311 310 306 319 320 316 321 321 320 321
308 308 308 308 308 308 307 308 310 311 310 310 311 311 312 312 311 311 307 311 314 312 315 315 317 319 317 314 312 309 313 315 319 315 311 317 313 310 312 309 312 310 313 314 313 313 319 322 321 322 323 323 323 326
308 308 309 309 308 307 308 308 310 310 310 310 310 311 311 312 311 310 307 309 312 312 313 310 311 315 318 318 319 310 313 316 315 318 318 316 313 311 310 309 308 312 316 316 316 318 319 319 322 324 326 326 327 328
307 308 308 308 309 309 308 308 309 310 310 310 310 310 311 311 310 309 307 309 312 310 306 308 313 313 315 318 317 315 313 314 315 316 315 313 313 311 310 309 310 312 318 317 315 318 320 321 324 326 327 328 327 327
306 306 306 307 308 309 309 307 308 310 310 310 310 310 310 310 309 310 307 310 312 311 306 309 312 311 313 315 313 315 314 313 315 315 314 313 312 311 310 311 310 314 318 316 314 325 324 324 326 328 326 326 327 326
306 306 306 306 307 307 308 308 309 308 309 309 310 310 309 309 309 310 316 314 313 314 308 302 308 311 316 313 313 313 314 314 314 315 313 312 310 313 311 310 316 317 320 321 322 325 323 325 327 328 327 326 326 326
304 305 306 307 307 307 307 308 308 308 308 309 309 309 308 309 308 308 314 314 312 316 309 304 304 313 314 314 315 315 314 315 316 314 313 313 313 314 311 309 316 319 321 320 323 324 321 324 322 325 324 323 322 324
306 305 306 307 307 307 308 308 308 308 308 308 308 308 308 309 308 309 313 311 312 314 314 305 305 308 315 314 313 314 314 315 313 313 312 312 313 313 310 315 318 319 320 322 323 322 324 323 323 322 323 323 322 322
306 307 307 307 307 307 308 308 308 308 308 308 308 308 311 312 316 313 312 315 314 312 306 308 303 306 315 313 314 315 314 311 312 312 312 312 312 309 315 316 318 319 321 319 320 321 321 321 321 321 322 322 321 321
306 307 307 307 307 308 307 308 308 308 307 306 306 309 315 311 309 312 312 311 310 311 311 306 312 309 312 312 313 315 314 312 308 311 316 314 313 319 321 321 321 320 320 321 318 318 320 320 321 321 322 322 322 323
306 306 307 307 307 307 308 308 308 307 305 303 299 300 304 309 312 311 305 306 308 305 307 309 306 306 312 310 312 314 313 312 307 310 310 312 312 318 319 320 322 322 323 323 325 324 324 323 322 322 322 323 324 324
306 306 306 306 307 307 308 308 308 305 303 302 302 304 305 308 308 304 304 306 307 308 311 309 311 308 308 315 314 314 311 311 307 313 311 310 318 319 318 318 320 322 322 322 323 322 323 323 323 323 324 324 325 326
306 306 306 306 307 307 309 309 308 308 306 305 302 302 303 304 296 298 296 303 304 310 313 313 310 310 308 313 313 312 308 308 313 310 309 315 318 317 319 320 321 324 324 323 323 324 324 324 324 323 323 325 326 326
306 307 307 307 307 309 308 308 309 308 304 300 300 289 297 299 301 303 306 304 307 309 309 312 312 311 312 310 313 308 309 310 305 305 308 319 319 318 321 322 322 322 323 323 322 323 322 323 323 323 324 326 326 323
306 307 307 306 307 308 307 307 307 306 302 298 300 291 300 305 306 307 306 306 308 310 309 310 312 311 310 309 309 308 306 304 306 307 315 320 319 320 321 322 323 322 322 322 322 321 321 321 321 321 325 325 325 323
306 306 306 306 306 307 306 307 305 305 302 298 297 298 304 302 303 305 305 304 309 309 311 313 311 309 309 309 306 306 305 303 309 317 319 318 319 322 322 323 323 322 323 322 321 321 321 321 320 322 322 323 322 320
306 302 303 305 306 306 306 305 304 299 298 298 299 304 303 303 303 304 305 306 309 309 311 312 305 305 309 307 306 309 308 313 316 319 318 321 322 324 324 324 322 323 322 321 320 319 319 321 321 320 317 317 318 318
303 304 304 304 306 305 304 305 302 300 296 301 299 303 303 304 304 305 306 308 307 308 310 310 312 306 304 304 306 312 312 318 321 319 319 323 324 325 324 324 323 322 320 319 318 317 317 317 318 318 317 315 315 314
304 305 305 306 305 301 299 302 303 297 299 303 304 304 304 304 306 306 306 308 308 309 311 313 309 307 309 311 313 314 317 319 317 318 321 323 325 322 323 324 323 321 320 317 316 315 314 316 316 316 315 314 312 314
306 306 306 306 305 300 297 300 306 300 298 301 302 301 302 303 305 306 306 307 308 309 309 310 311 314 314 317 319 320 320 321 319 317 318 320 321 322 322 322 321 321 318 316 316 308 313 313 314 314 315 314 314 314
303 304 306 307 303 301 298 298 299 301 301 300 303 302 303 305 303 304 304 308 305 306 308 314 317 320 321 321 320 319 322 322 323 323 320 319 321 322 322 323 322 320 317 315 313 311 308 313 315 316 315 315 315 316
302 305 304 304 298 300 298 301 299 301 298 300 299 301 299 299 300 303 307 304 305 308 310 311 315 318 319 320 322 323 324 322 322 318 313 314 318 320 321 321 321 319 318 316 315 313 315 316 317 317 314 313 308 314
304 303 301 301 296 295 294 301 297 299 296 298 300 298 300 300 303 306 301 304 306 309 311 309 311 313 317 321 320 322 326 324 322 323 321 323 322 323 323 322 323 321 319 317 318 316 316 308 311 314 316 314 312 312
304 299 296 295 296 291 298 296 298 297 299 298 297 295 299 303 306 303 300 304 308 310 310 310 313 315 320 321 321 323 322 325 325 324 324 322 320 321 324 324 323 325 326 321 319 318 318 313 306 313 314 311 310 309
292 292 292 287 297 294 294 295 296 296 295 297 296 297 301 303 300 300 300 305 309 310 310 312 310 312 314 317 321 323 324 323 323 323 322 324 322 319 319 322 323 324 321 316 313 315 311 312 313 309 309 308 307 307
287 293 290 293 294 292 293 292 294 294 295 294 296 301 303 300 297 296 302 308 310 311 312 312 311 309 312 317 316 319 323 326 325 322 321 323 322 322 319 317 316 316 321 320 314 309 308 309 308 306 305 302 298 305
288 291 296 298 297 297 296 298 299 295 292 294 297 298 298 295 295 301 309 312 312 313 314 316 314 311 310 311 313 316 319 322 322 319 321 320 320 321 321 317 314 314 317 314 310 310 309 308 308 309 305 306 308 308
295 295 292 297 296 299 295 297 296 295 297 301 300 291 295 296 298 306 309 314 315 314 314 315 315 312 314 315 315 316 315 316 318 319 319 318 319 319 317 314 313 302 313 313 312 311 311 311 309 308 308 307 307 307
293 298 297 295 297 297 297 298 298 300 303 301 298 298 299 305 308 308 309 312 315 313 309 309 311 314 313 314 315 316 317 318 317 314 308 306 308 309 312 310 311 312 311 307 295 303 310 310 309 309 308 307 306 306
296 301 298 298 296 296 301 303 301 306 306 305 306 305 306 306 307 308 306 306 307 305 306 306 308 310 311 313 313 312 310 310 317 315 309 307 309 310 311 312 312 312 315 311 306 305 296 305 302 307 306 305 305 304
300 300 297 297 296 299 301 304 305 306 306 306 307 303 300 304 307 307 305 304 304 303 302 300 300 300 303 302 307 309 308 307 310 314 314 314 313 315 316 316 314 315 316 313 309 308 307 306 306 305 304 303 302 301
298 297 296 295 298 302 304 303 303 302 302 302 302 305 305 303 299 304 309 307 303 300 298 298 298 298 300 300 300 300 296 302 307 315 316 316 316 316 316 315 315 314 312 309 307 307 306 305 304 304 303 302 301 301
298 298 298 296 297 299 302 302 300 299 300 300 302 303 303 302 298 306 312 309 304 300 299 299 299 299 298 298 300 301 299 299 294 291 293 295 298 305 312 311 310 309 308 306 306 305 305 304 303 302 302 301 300 300